Location: ??
(34.9170°N, 135.5016°E)
Time: 18:19:35
(UTC+00:00)

SJ-6F - Pass Details

Date: 29 October 2020
Orbit: 571 x 593 km, 97.8° (Epoch: 30 November)

Event Time Altitude Azimuth Distance (km) Brightness Sun altitude
Rises 19:26:39 0° 9° (N) 2,794 8.0 -23.1°
Reaches altitude 10° 19:28:49 10° 8° (N) 1,895 7.1 -22.7°
Maximum altitude 19:32:54 73° 284° (WNW) 609 4.2 -21.8°
Enters shadow 19:33:26 62° 229° (SW) 653 4.4 -21.7°
